Location: ?ern� Novina
(50.6762°N, 14.8696°E)
Time: 12:57:09
(UTC+00:00)

CSL-04 Rocket - Pass Details

Date: 03 March 2021
Orbit: 805 x 861 km, 98.9° (Epoch: 16 April)

Event Time Altitude Azimuth Distance (km) Brightness Sun altitude
Rises 18:22:13 0° 174° (S) 3,425 6.7 -16.1°
Reaches altitude 10° 18:24:38 10° 178° (S) 2,490 6.0 -16.4°
Maximum altitude 18:30:06 60° 258° (WSW) 975 4.3 -17.3°
Drops below altitude 10° 18:35:34 10° 338° (NNW) 2,485 6.6 -18.1°
Sets 18:37:59 0° 343° (NNW) 3,417 7.3 -18.5°
